sat.trackr.live / text

‹ back to catalog

2026-134G

NORAD 69544 · 2026-134G

PAYLOAD ACTIVE UNKNOWN

§ Identity

Operator
Country
PRC
Launch date
2026-06-15
Launch site
JSC
Launch vehicle
Mass (kg)
RCS (m²)

External: N2YO · Heavens-Above · Gunter

§ Orbital elements

Epoch: 2026-09-19T10:16:47.389728Z

Period
95.39 min
Inclination
97.6959°
Eccentricity
0.0016366
Mean motion
15.09633207 rev/d
Perigee alt
526.0 km
Apogee alt
548.6 km
Semi-major
6,915.5 km
B*
2.0152e-4
RAAN
332.9918°
Arg perigee
309.8974°
Mean anomaly
50.0815°
Rev number
1,452

§ Raw data

2026-134G1 69544U 26134G   26262.42832627  .00003184  00000+0  20152-3 0  99942 69544  97.6959 332.9918 0016366 309.8974  50.0815 15.09633207 14529

JSON: /api/v1/satellites/69544 · /tle

For live sub-satellite position, see the globe view (requires WebGL).

§ Visibility from observer

Set your observer location to see the next 7 days of passes ≥ 10°. The values pass through the URL so the page stays shareable.

No JS? Fill the form by hand. The geolocation button needs JavaScript.